Regional Weather Roundup
Issued by NWS

Home | Current Version | Previous Version | Text Only | Print | Product List | Glossary On
Versions: 1 2 3 4 5 6 7 8 9 10 11 12 13 14 15 16 17 18 19 20 21 22 23 24 25 26 27 28 29 30 31 32 33 34 35 36 37 38 39 40 41 42 43 44 45 46 47 48 49 50
000
ASUS43 KTOP 201708
RWRKS

WEATHER ROUNDUP FOR KANSAS
NATIONAL WEATHER SERVICE GOODLAND KS
1200 PM CDT SAT SEP 20 2014

NOTE:  "FAIR" INDICATES FEW OR NO CLOUDS BELOW 12,000 FEET WITH NO
SIGNIFICANT WEATHER AND/OR OBSTRUCTIONS TO VISIBILITY.

KSZ001>006-013>018-027>032-041>047-201800-
NORTHWEST KANSAS

CITY           SKY/WX    TMP DP  RH WIND       PRES   REMARKS
GOODLAND       SUNNY     77  53  43 NE22G28   30.13R
HILL CITY      SUNNY     82  64  54 NE14      30.01R
RUSSELL        SUNNY     81  66  60 SW13      29.96F
$$

KSZ061>065-074>080-084>089-201800-
SOUTHWEST KANSAS

CITY           SKY/WX    TMP DP  RH WIND       PRES   REMARKS
DODGE CITY     SUNNY     84  62  47 SW12      30.03R
ELKHART          N/A     78  63  60 N6          N/A
GARDEN CITY    SUNNY     79  64  60 VRB5      30.04R
GREAT BEND     SUNNY     84  64  51 SW9G17    29.99S
LIBERAL        SUNNY     82  64  54 SW10      30.06S
PRATT          SUNNY     82  63  51 SW10G21   30.03S
$$

KSZ066>073-081>083-090>101-201800-
SOUTHEAST KANSAS

CITY           SKY/WX    TMP DP  RH WIND       PRES   REMARKS
CHANUTE        CLOUDY    76  71  85 S12       30.04F
HUTCHINSON     SUNNY     85  65  51 SW12      30.00F
MEDICINE LODGE   N/A     84  66  54 S7        30.01S
NEWTON         MOSUNNY   82  66  57 SW15G23   30.03F
PARSONS        CLOUDY    76  72  87 S8        30.07S
WICHITA INTL   PTSUNNY   85  66  53 SW15      30.01F
WICHITA JABRA  MOSUNNY   83  68  60 SW12      30.01F
WICHITA MCCONL MOSUNNY   83  69  62 S14       30.02F
WINFIELD       MOSUNNY   82  69  64 SW12      30.04S
$$

KSZ007>012-019>026-033>040-048>060-102>105-201800-
NORTHEAST KANSAS

CITY           SKY/WX    TMP DP  RH WIND       PRES   REMARKS
CONCORDIA      SUNNY     81  68  64 SW8G17    29.96S
EMPORIA        SUNNY     82  70  66 S18       29.99F
LAWRENCE       SUNNY     82  69  64 SW13      29.99S
MANHATTAN      SUNNY     85  68  56 SW12      29.96S
MARYSVILLE     SUNNY     82  70  65 SW10G17   29.95F
OLATHE IND     SUNNY     80  71  74 SW13G22   30.02R
OLATHE EXE     SUNNY     81  70  69 SW12      30.00F
SALINA         SUNNY     85  67  54 S13       29.97F
TOPEKA BILLARD SUNNY     84  70  62 SW13      29.98S
TOPEKA FORBES  SUNNY     84  70  62 SW17      29.99R
$$


USA.gov is the U.S. government's official web portal to all federal, state and local government web resources and services.